| time (UTC) | temp F | wind direction | speed MPH | gust MPH | rain 1hr in | rain 24hr in | rain mn in | humidity % | barometer mb |
| 20260506051336 | 76 | 109 | 2.0 | 7.0 | 0.00 | 0.00 | 0.00 | 90 | 1010.6 |
| 20260506050834 | 76 | 118 | 2.0 | 4.0 | 0.00 | 0.00 | 0.00 | 90 | 1010.5 |
| 20260506050331 | 76 | 112 | 0.0 | 3.0 | 0.00 | 0.00 | 0.00 | 90 | 1010.6 |
| 20260506044821 | 76 | 115 | 3.0 | 6.0 | 0.00 | 0.00 | 0.00 | 89 | 1010.4 |
| 20260506044319 | 76 | 87 | 1.0 | 6.0 | 0.00 | 0.00 | 0.00 | 89 | 1010.6 |
| 20260506043816 | 76 | 94 | 4.0 | 4.0 | 0.00 | 0.00 | 0.00 | 89 | 1010.4 |
| 20260506043313 | 76 | 114 | 2.0 | 3.0 | 0.00 | 0.00 | 0.00 | 89 | 1010.5 |
| 20260506042812 | 77 | 190 | 1.0 | 2.0 | 0.00 | 0.00 | 0.00 | 89 | 1010.4 |
| 20260506042310 | 77 | 91 | 2.0 | 3.0 | 0.00 | 0.00 | 0.00 | 88 | 1010.5 |
| 20260506041808 | 77 | 72 | 0.0 | 2.0 | 0.00 | 0.00 | 0.00 | 88 | 1010.5 |
| 20260506041305 | 77 | 93 | 1.0 | 3.0 | 0.00 | 0.00 | 0.00 | 88 | 1010.4 |
| 20260506040802 | 77 | 67 | 1.0 | 6.0 | 0.00 | 0.00 | 0.00 | 88 | 1010.4 |
| 20260506040259 | 77 | 66 | 1.0 | 3.0 | 0.00 | 0.00 | 0.00 | 88 | 1010.3 |
| 20260506035756 | 77 | 102 | 1.0 | 3.0 | 0.00 | 0.00 | 0.00 | 87 | 1010.3 |
| 20260506035253 | 77 | 125 | 1.0 | 3.0 | 0.00 | 0.00 | 0.00 | 87 | 1010.0 |
| 20260506034750 | 77 | 165 | 2.0 | 3.0 | 0.00 | 0.00 | 0.00 | 86 | 1009.8 |
| 20260506034247 | 77 | 152 | 4.0 | 7.0 | 0.00 | 0.00 | 0.00 | 86 | 1010.0 |
| 20260506033744 | 77 | 125 | 1.0 | 4.0 | 0.00 | 0.00 | 0.00 | 86 | 1009.8 |
| 20260506033241 | 77 | 196 | 1.0 | 2.0 | 0.00 | 0.00 | 0.00 | 86 | 1009.9 |
| 20260506032738 | 77 | 155 | 2.0 | 3.0 | 0.00 | 0.00 | 0.00 | 86 | 1009.7 |
| 20260506032235 | 77 | 73 | 1.0 | 1.0 | 0.00 | 0.00 | 0.00 | 85 | 1009.8 |
| 20260506031732 | 78 | 144 | 8.0 | 11.0 | 0.00 | 0.00 | 0.00 | 85 | 1009.7 |
| 20260506031229 | 78 | 62 | 3.0 | 4.0 | 0.00 | 0.00 | 0.00 | 85 | 1009.6 |
| 20260506030728 | 78 | 98 | 1.0 | 4.0 | 0.00 | 0.00 | 0.00 | 84 | 1009.5 |
| 20260506030225 | 78 | 111 | 1.0 | 3.0 | 0.00 | 0.00 | 0.00 | 84 | 1009.4 |
| 20260506025721 | 78 | 66 | 1.0 | 2.0 | 0.00 | 0.00 | 0.00 | 84 | 1009.6 |
| 20260506025217 | 78 | 111 | 2.0 | 4.0 | 0.00 | 0.00 | 0.00 | 84 | 1009.4 |
| 20260506024714 | 78 | 104 | 3.0 | 6.0 | 0.00 | 0.00 | 0.00 | 84 | 1009.3 |
| 20260506024211 | 78 | 169 | 3.0 | 4.0 | 0.00 | 0.00 | 0.00 | 84 | 1009.3 |
| 20260506023708 | 78 | 61 | 2.0 | 4.0 | 0.00 | 0.00 | 0.00 | 84 | 1009.3 |
| 20260506023205 | 78 | 123 | 1.0 | 2.0 | 0.00 | 0.00 | 0.00 | 84 | 1009.0 |
| 20260506022702 | 78 | 113 | 2.0 | 2.0 | 0.00 | 0.00 | 0.00 | 84 | 1009.1 |
| 20260506022159 | 78 | 89 | 1.0 | 2.0 | 0.00 | 0.00 | 0.00 | 84 | 1009.2 |
| 20260506021657 | 78 | 77 | 2.0 | 3.0 | 0.00 | 0.00 | 0.00 | 84 | 1009.0 |
| 20260506021154 | 78 | 79 | 1.0 | 2.0 | 0.00 | 0.00 | 0.00 | 84 | 1009.1 |
| 20260506020651 | 78 | 134 | 1.0 | 3.0 | 0.00 | 0.00 | 0.00 | 84 | 1009.1 |
| 20260506020149 | 78 | 86 | 1.0 | 2.0 | 0.00 | 0.00 | 0.00 | 84 | 1008.9 |
| 20260506015646 | 78 | 82 | 1.0 | 4.0 | 0.00 | 0.00 | 0.00 | 83 | 1009.1 |
| 20260506015143 | 78 | 72 | 0.0 | 1.0 | 0.00 | 0.00 | 0.00 | 83 | 1009.2 |
| 20260506014641 | 78 | 70 | 0.0 | 0.0 | 0.00 | 0.00 | 0.00 | 83 | 1008.9 |
| 20260506014136 | 78 | 70 | 0.0 | 2.0 | 0.00 | 0.00 | 0.00 | 83 | 1008.9 |
| 20260506013634 | 78 | 67 | 1.0 | 1.0 | 0.00 | 0.00 | 0.00 | 83 | 1009.0 |
| 20260506013131 | 79 | 91 | 0.0 | 3.0 | 0.00 | 0.00 | 0.00 | 83 | 1009.0 |
| 20260506012627 | 79 | 105 | 0.0 | 2.0 | 0.00 | 0.00 | 0.00 | 82 | 1008.5 |
| 20260506012124 | 79 | 72 | 0.0 | 1.0 | 0.00 | 0.00 | 0.00 | 82 | 1008.6 |
| 20260506011622 | 79 | 81 | 0.0 | 1.0 | 0.00 | 0.00 | 0.00 | 81 | 1008.4 |
| 20260506011117 | 79 | 59 | 0.0 | 2.0 | 0.00 | 0.00 | 0.00 | 81 | 1008.3 |
| 20260506010611 | 80 | 73 | 1.0 | 3.0 | 0.00 | 0.00 | 0.00 | 81 | 1008.1 |
| 20260506010107 | 80 | 75 | 1.0 | 7.0 | 0.00 | 0.00 | 0.00 | 80 | 1008.1 |
| 20260506005604 | 80 | 198 | 2.0 | 7.0 | 0.00 | 0.00 | 0.00 | 80 | 1007.8 |
| 20260506005100 | 80 | 170 | 0.0 | 3.0 | 0.00 | 0.00 | 0.00 | 80 | 1008.1 |
| 20260506004558 | 80 | 76 | 1.0 | 4.0 | 0.00 | 0.00 | 0.00 | 80 | 1007.9 |
| 20260506004054 | 80 | 83 | 0.0 | 2.0 | 0.00 | 0.00 | 0.00 | 79 | 1007.9 |
| 20260506003551 | 80 | 93 | 1.0 | 4.0 | 0.00 | 0.00 | 0.00 | 79 | 1007.9 |
| 20260506003047 | 81 | 90 | 0.0 | 3.0 | 0.00 | 0.00 | 0.00 | 78 | 1008.0 |
| 20260506002543 | 81 | 109 | 1.0 | 4.0 | 0.00 | 0.00 | 0.00 | 78 | 1007.8 |
| 20260506002039 | 81 | 144 | 2.0 | 4.0 | 0.00 | 0.00 | 0.00 | 78 | 1007.8 |
| 20260506001535 | 81 | 102 | 2.0 | 4.0 | 0.00 | 0.00 | 0.00 | 77 | 1007.9 |
| 20260506001033 | 82 | 120 | 1.0 | 2.0 | 0.00 | 0.00 | 0.00 | 77 | 1008.0 |
| 20260506000530 | 82 | 22 | 4.0 | 6.0 | 0.00 | 0.00 | 0.00 | 77 | 1008.1 |
| 20260506000028 | 82 | 84 | 5.0 | 9.0 | 0.00 | 0.00 | 0.00 | 77 | 1008.3 |
| 20260505235526 | 82 | 78 | 0.0 | 2.0 | 0.00 | 0.00 | 0.00 | 77 | 1007.8 |
| 20260505235022 | 82 | 88 | 1.0 | 3.0 | 0.00 | 0.00 | 0.00 | 76 | 1007.9 |
| 20260505234519 | 82 | 43 | 1.0 | 3.0 | 0.00 | 0.00 | 0.00 | 76 | 1007.9 |
| 20260505234016 | 82 | 104 | 1.0 | 4.0 | 0.00 | 0.00 | 0.00 | 75 | 1007.8 |
| 20260505233514 | 83 | 84 | 2.0 | 4.0 | 0.00 | 0.00 | 0.00 | 75 | 1007.9 |
| 20260505233011 | 83 | 54 | 2.0 | 2.0 | 0.00 | 0.00 | 0.00 | 75 | 1007.8 |
| 20260505232509 | 83 | 82 | 1.0 | 3.0 | 0.00 | 0.00 | 0.00 | 74 | 1007.8 |
| 20260505232006 | 84 | 80 | 3.0 | 6.0 | 0.00 | 0.00 | 0.00 | 73 | 1007.7 |
| 20260505231503 | 83 | 94 | 1.0 | 3.0 | 0.00 | 0.00 | 0.00 | 74 | 1007.9 |
| 20260505231002 | 83 | 75 | 4.0 | 8.0 | 0.00 | 0.00 | 0.00 | 74 | 1007.7 |
| 20260505230459 | 84 | 144 | 2.0 | 4.0 | 0.00 | 0.00 | 0.00 | 73 | 1007.6 |
| 20260505225955 | 84 | 106 | 1.0 | 2.0 | 0.00 | 0.00 | 0.00 | 73 | 1007.6 |
| 20260505225452 | 85 | 152 | 3.0 | 3.0 | 0.00 | 0.00 | 0.00 | 71 | 1007.9 |
| 20260505224948 | 85 | 78 | 1.0 | 3.0 | 0.00 | 0.00 | 0.00 | 72 | 1007.9 |
| 20260505224445 | 85 | 71 | 0.0 | 3.0 | 0.00 | 0.00 | 0.00 | 71 | 1008.0 |
| 20260505223942 | 85 | 351 | 1.0 | 3.0 | 0.00 | 0.00 | 0.00 | 71 | 1007.9 |
| 20260505223439 | 85 | 74 | 1.0 | 2.0 | 0.00 | 0.00 | 0.00 | 71 | 1008.0 |
| 20260505222935 | 85 | 57 | 0.0 | 2.0 | 0.00 | 0.00 | 0.00 | 72 | 1007.9 |
| 20260505222432 | 85 | 96 | 1.0 | 3.0 | 0.00 | 0.00 | 0.00 | 72 | 1008.0 |
| 20260505221928 | 86 | 60 | 4.0 | 6.0 | 0.00 | 0.00 | 0.00 | 71 | 1007.8 |
| 20260505221425 | 86 | 80 | 1.0 | 3.0 | 0.00 | 0.00 | 0.00 | 69 | 1007.8 |
| 20260505220922 | 86 | 76 | 2.0 | 3.0 | 0.00 | 0.00 | 0.00 | 69 | 1008.0 |
| 20260505220419 | 86 | 120 | 2.0 | 2.0 | 0.00 | 0.00 | 0.00 | 70 | 1007.9 |
| 20260505215917 | 86 | 147 | 2.0 | 3.0 | 0.00 | 0.00 | 0.00 | 69 | 1007.8 |
| 20260505215415 | 86 | 80 | 0.0 | 1.0 | 0.00 | 0.00 | 0.00 | 70 | 1008.0 |
| 20260505214913 | 87 | 261 | 1.0 | 2.0 | 0.00 | 0.00 | 0.00 | 70 | 1008.2 |
| 20260505214410 | 86 | 75 | 2.0 | 2.0 | 0.00 | 0.00 | 0.00 | 70 | 1008.0 |
| 20260505213907 | 85 | 70 | 0.0 | 3.0 | 0.00 | 0.00 | 0.00 | 72 | 1008.0 |
| 20260505213405 | 84 | 109 | 1.0 | 3.0 | 0.00 | 0.00 | 0.00 | 72 | 1008.1 |
| 20260505212901 | 85 | 106 | 3.0 | 7.0 | 0.00 | 0.00 | 0.00 | 71 | 1008.3 |
| 20260505212358 | 86 | 143 | 3.0 | 4.0 | 0.00 | 0.00 | 0.00 | 70 | 1008.3 |
| 20260505211854 | 86 | 11 | 1.0 | 1.0 | 0.00 | 0.00 | 0.00 | 68 | 1008.1 |
| 20260505211351 | 86 | 97 | 2.0 | 4.0 | 0.00 | 0.00 | 0.00 | 68 | 1008.2 |
| 20260505210848 | 86 | 91 | 1.0 | 4.0 | 0.00 | 0.00 | 0.00 | 69 | 1008.5 |
| 20260505210345 | 85 | 79 | 1.0 | 6.0 | 0.00 | 0.00 | 0.00 | 72 | 1008.5 |
| 20260505205841 | 85 | 81 | 2.0 | 3.0 | 0.00 | 0.00 | 0.00 | 71 | 1008.8 |
| 20260505205340 | 85 | 72 | 1.0 | 3.0 | 0.00 | 0.00 | 0.00 | 71 | 1008.7 |
| 20260505204837 | 86 | 86 | 2.0 | 3.0 | 0.00 | 0.00 | 0.00 | 69 | 1008.8 |
| 20260505204334 | 88 | 225 | 4.0 | 4.0 | 0.00 | 0.00 | 0.00 | 67 | 1008.8 |
| 20260505203831 | 87 | 12 | 1.0 | 1.0 | 0.00 | 0.00 | 0.00 | 69 | 1009.0 |
| 20260505203328 | 86 | 251 | 1.0 | 2.0 | 0.00 | 0.00 | 0.00 | 70 | 1008.9 |
| 20260505202824 | 85 | 67 | 0.0 | 3.0 | 0.00 | 0.00 | 0.00 | 72 | 1009.1 |
| 20260505202320 | 85 | 71 | 0.0 | 2.0 | 0.00 | 0.00 | 0.00 | 71 | 1009.1 |
| 20260505201817 | 85 | 225 | 1.0 | 2.0 | 0.00 | 0.00 | 0.00 | 71 | 1009.1 |
| 20260505201315 | 86 | 77 | 1.0 | 4.0 | 0.00 | 0.00 | 0.00 | 70 | 1009.2 |
| 20260505200813 | 87 | 94 | 1.0 | 2.0 | 0.00 | 0.00 | 0.00 | 68 | 1009.4 |
| 20260505200309 | 88 | 72 | 1.0 | 1.0 | 0.00 | 0.00 | 0.00 | 69 | 1009.4 |
| 20260505195804 | 87 | 53 | 1.0 | 2.0 | 0.00 | 0.00 | 0.00 | 68 | 1009.5 |
| 20260505195305 | 86 | 78 | 1.0 | 7.0 | 0.00 | 0.00 | 0.00 | 69 | 1009.4 |
| 20260505194759 | 87 | 83 | 2.0 | 2.0 | 0.00 | 0.00 | 0.00 | 68 | 1009.6 |
| 20260505194256 | 86 | 168 | 2.0 | 3.0 | 0.00 | 0.00 | 0.00 | 71 | 1009.7 |
| 20260505193756 | 86 | 181 | 1.0 | 3.0 | 0.00 | 0.00 | 0.00 | 70 | 1009.8 |
| 20260505193254 | 85 | 49 | 1.0 | 4.0 | 0.00 | 0.00 | 0.00 | 71 | 1009.7 |
| 20260505192752 | 84 | 89 | 1.0 | 2.0 | 0.00 | 0.00 | 0.00 | 72 | 1009.9 |
| 20260505192250 | 85 | 65 | 0.0 | 2.0 | 0.00 | 0.00 | 0.00 | 72 | 1009.9 |
| 20260505191748 | 84 | 89 | 2.0 | 3.0 | 0.00 | 0.00 | 0.00 | 72 | 1009.9 |
| 20260505191246 | 84 | 100 | 1.0 | 2.0 | 0.00 | 0.00 | 0.00 | 74 | 1010.1 |
| 20260505190742 | 83 | 110 | 1.0 | 3.0 | 0.00 | 0.00 | 0.00 | 74 | 1010.0 |
| 20260505190237 | 84 | 29 | 2.0 | 4.0 | 0.00 | 0.00 | 0.00 | 73 | 1009.9 |
| 20260505185733 | 84 | 80 | 1.0 | 3.0 | 0.00 | 0.00 | 0.00 | 73 | 1010.0 |
| 20260505185230 | 84 | 134 | 2.0 | 3.0 | 0.00 | 0.00 | 0.00 | 73 | 1009.9 |
| 20260505184726 | 84 | 100 | 1.0 | 4.0 | 0.00 | 0.00 | 0.00 | 73 | 1010.0 |
| 20260505184224 | 83 | 19 | 1.0 | 2.0 | 0.00 | 0.00 | 0.00 | 74 | 1010.0 |
| 20260505183720 | 84 | 18 | 0.0 | 1.0 | 0.00 | 0.00 | 0.00 | 73 | 1010.0 |
| 20260505183218 | 84 | 304 | 2.0 | 3.0 | 0.00 | 0.00 | 0.00 | 71 | 1009.9 |
| 20260505182714 | 85 | 72 | 1.0 | 2.0 | 0.00 | 0.00 | 0.00 | 71 | 1010.0 |
| 20260505182211 | 84 | 223 | 1.0 | 4.0 | 0.00 | 0.00 | 0.00 | 73 | 1009.9 |
| 20260505181707 | 84 | 41 | 1.0 | 2.0 | 0.00 | 0.00 | 0.00 | 72 | 1010.1 |
| 20260505181205 | 84 | 76 | 2.0 | 9.0 | 0.00 | 0.00 | 0.00 | 71 | 1010.2 |
| 20260505180701 | 82 | 18 | 1.0 | 8.0 | 0.00 | 0.00 | 0.00 | 74 | 1010.1 |
| 20260505180158 | 83 | 292 | 2.0 | 4.0 | 0.00 | 0.00 | 0.00 | 73 | 1010.0 |
| 20260505175654 | 83 | 113 | 4.0 | 6.0 | 0.00 | 0.00 | 0.00 | 74 | 1010.3 |
| 20260505175151 | 83 | 89 | 0.0 | 2.0 | 0.00 | 0.00 | 0.00 | 74 | 1010.2 |
| 20260505174647 | 82 | 75 | 1.0 | 3.0 | 0.00 | 0.00 | 0.00 | 76 | 1010.3 |
| 20260505174143 | 82 | 297 | 1.0 | 3.0 | 0.00 | 0.00 | 0.00 | 77 | 1010.4 |
| 20260505173640 | 81 | 129 | 2.0 | 2.0 | 0.00 | 0.00 | 0.00 | 77 | 1010.4 |
| 20260505173137 | 82 | 108 | 1.0 | 2.0 | 0.00 | 0.00 | 0.00 | 77 | 1010.4 |
| 20260505172635 | 81 | 34 | 1.0 | 2.0 | 0.00 | 0.00 | 0.00 | 78 | 1010.7 |
| 20260505172131 | 81 | 318 | 3.0 | 4.0 | 0.00 | 0.00 | 0.00 | 77 | 1010.5 |
| 20260505171626 | 81 | 119 | 1.0 | 3.0 | 0.00 | 0.00 | 0.00 | 79 | 1010.6 |
| 20260505171123 | 80 | 83 | 2.0 | 7.0 | 0.00 | 0.00 | 0.00 | 80 | 1010.7 |
| 20260505170621 | 81 | 129 | 2.0 | 3.0 | 0.00 | 0.00 | 0.00 | 79 | 1010.7 |
| 20260505170117 | 81 | 66 | 0.0 | 2.0 | 0.00 | 0.00 | 0.00 | 79 | 1010.8 |
| 20260505165611 | 81 | 93 | 0.0 | 3.0 | 0.00 | 0.00 | 0.00 | 80 | 1010.6 |
| 20260505165108 | 80 | 71 | 1.0 | 2.0 | 0.00 | 0.00 | 0.00 | 81 | 1010.9 |
| 20260505164604 | 79 | 54 | 0.0 | 2.0 | 0.00 | 0.00 | 0.00 | 84 | 1010.5 |
| 20260505164102 | 78 | 73 | 0.0 | 3.0 | 0.00 | 0.00 | 0.00 | 84 | 1010.7 |
| 20260505163600 | 78 | 93 | 0.0 | 3.0 | 0.00 | 0.00 | 0.00 | 83 | 1010.9 |
| 20260505163057 | 79 | 83 | 2.0 | 4.0 | 0.00 | 0.00 | 0.00 | 83 | 1010.9 |
| 20260505162555 | 78 | 77 | 0.0 | 2.0 | 0.00 | 0.00 | 0.00 | 84 | 1010.9 |
| 20260505162052 | 78 | 86 | 1.0 | 3.0 | 0.00 | 0.00 | 0.00 | 84 | 1011.1 |
| 20260505161549 | 77 | 74 | 0.0 | 1.0 | 0.00 | 0.00 | 0.00 | 85 | 1010.9 |
| 20260505161047 | 77 | 99 | 0.0 | 1.0 | 0.00 | 0.00 | 0.00 | 85 | 1011.0 |
| 20260505160544 | 77 | 1 | 1.0 | 3.0 | 0.00 | 0.00 | 0.00 | 85 | 1010.9 |
| 20260505153021 | 75 | 52 | 1.0 | 2.0 | 0.00 | 0.00 | 0.00 | 90 | 1011.1 |
| 20260505152518 | 75 | 172 | 1.0 | 2.0 | 0.00 | 0.00 | 0.00 | 89 | 1010.9 |
| 20260505152013 | 74 | 74 | 2.0 | 2.0 | 0.00 | 0.00 | 0.00 | 90 | 1010.9 |
| 20260505151508 | 74 | 108 | 0.0 | 1.0 | 0.00 | 0.00 | 0.00 | 90 | 1010.9 |
| 20260505151006 | 74 | 19 | 1.0 | 2.0 | 0.00 | 0.00 | 0.00 | 90 | 1010.7 |
| 20260505150502 | 74 | 73 | 0.0 | 1.0 | 0.00 | 0.00 | 0.00 | 89 | 1010.8 |
| 20260505140432 | 73 | 73 | 0.0 | 1.0 | 0.00 | 0.00 | 0.00 | 91 | 1010.3 |
| 20260505124846 | 71 | 70 | 0.0 | 2.0 | 0.00 | 0.00 | 0.00 | 92 | 1010.0 |
| 20260505124343 | 71 | 126 | 1.0 | 3.0 | 0.00 | 0.00 | 0.00 | 92 | 1009.8 |
| 20260505123839 | 71 | 75 | 1.0 | 6.0 | 0.00 | 0.00 | 0.00 | 92 | 1010.0 |
| 20260505123336 | 71 | 143 | 1.0 | 2.0 | 0.00 | 0.00 | 0.00 | 92 | 1010.0 |
| 20260505122832 | 71 | 77 | 0.0 | 1.0 | 0.00 | 0.00 | 0.00 | 92 | 1010.1 |
| 20260505122329 | 71 | 75 | 1.0 | 3.0 | 0.00 | 0.00 | 0.00 | 92 | 1010.1 |
| 20260505121826 | 71 | 274 | 2.0 | 2.0 | 0.00 | 0.00 | 0.00 | 92 | 1010.2 |
| 20260505121323 | 71 | 76 | 1.0 | 1.0 | 0.00 | 0.00 | 0.00 | 92 | 1009.7 |
| 20260505120819 | 71 | 82 | 1.0 | 1.0 | 0.00 | 0.00 | 0.00 | 92 | 1009.5 |
| 20260505120315 | 71 | 87 | 2.0 | 2.0 | 0.00 | 0.00 | 0.00 | 92 | 1009.7 |
| 20260505115813 | 70 | 71 | 1.0 | 2.0 | 0.00 | 0.00 | 0.00 | 92 | 1009.7 |
| 20260505115311 | 70 | 119 | 1.0 | 3.0 | 0.00 | 0.00 | 0.00 | 92 | 1009.6 |
| 20260505114809 | 70 | 72 | 1.0 | 1.0 | 0.00 | 0.00 | 0.00 | 92 | 1009.8 |
| 20260505114305 | 71 | 90 | 0.0 | 2.0 | 0.00 | 0.00 | 0.00 | 92 | 1009.8 |
| 20260505113801 | 71 | 71 | 1.0 | 2.0 | 0.00 | 0.00 | 0.00 | 92 | 1009.7 |
| 20260505113258 | 71 | 74 | 1.0 | 2.0 | 0.00 | 0.00 | 0.00 | 92 | 1009.6 |
| 20260505112754 | 71 | 70 | 1.0 | 2.0 | 0.00 | 0.00 | 0.00 | 91 | 1009.6 |
| 20260505112252 | 71 | 75 | 1.0 | 3.0 | 0.00 | 0.00 | 0.00 | 91 | 1009.8 |
| 20260505111752 | 71 | 79 | 1.0 | 2.0 | 0.00 | 0.00 | 0.00 | 91 | 1009.7 |
| 20260505111248 | 70 | 85 | 1.0 | 2.0 | 0.00 | 0.00 | 0.00 | 91 | 1009.6 |
| 20260505110744 | 70 | 84 | 1.0 | 2.0 | 0.00 | 0.00 | 0.00 | 91 | 1009.6 |
| 20260505110242 | 70 | 62 | 1.0 | 1.0 | 0.00 | 0.00 | 0.00 | 91 | 1009.5 |
| 20260505102217 | 70 | 83 | 0.0 | 2.0 | 0.00 | 0.00 | 0.00 | 92 | 1009.5 |
| 20260505101716 | 70 | 73 | 0.0 | 2.0 | 0.00 | 0.00 | 0.00 | 92 | 1009.3 |
| 20260505101212 | 70 | 37 | 0.0 | 3.0 | 0.00 | 0.00 | 0.00 | 92 | 1009.8 |
| 20260505100708 | 70 | 81 | 1.0 | 3.0 | 0.00 | 0.00 | 0.00 | 92 | 1009.7 |
| 20260505100206 | 70 | 98 | 1.0 | 4.0 | 0.00 | 0.00 | 0.00 | 92 | 1009.9 |
| 20260505095701 | 70 | 91 | 0.0 | 2.0 | 0.00 | 0.00 | 0.00 | 92 | 1009.6 |
| 20260505095159 | 70 | 122 | 2.0 | 4.0 | 0.00 | 0.00 | 0.00 | 92 | 1009.7 |
| 20260505094654 | 70 | 76 | 0.0 | 2.0 | 0.00 | 0.00 | 0.00 | 92 | 1009.7 |
| 20260505094151 | 70 | 10 | 1.0 | 4.0 | 0.00 | 0.00 | 0.00 | 92 | 1009.8 |
| 20260505093647 | 70 | 113 | 1.0 | 2.0 | 0.00 | 0.00 | 0.00 | 92 | 1009.7 |
| 20260505093145 | 70 | 72 | 0.0 | 1.0 | 0.00 | 0.00 | 0.00 | 92 | 1009.9 |
| 20260505092642 | 69 | 52 | 2.0 | 2.0 | 0.00 | 0.00 | 0.00 | 92 | 1009.7 |
| 20260505092141 | 69 | 161 | 1.0 | 2.0 | 0.00 | 0.00 | 0.00 | 92 | 1009.8 |
| 20260505091637 | 69 | 64 | 0.0 | 1.0 | 0.00 | 0.00 | 0.00 | 92 | 1009.8 |
| 20260505091135 | 69 | 69 | 0.0 | 2.0 | 0.00 | 0.00 | 0.00 | 92 | 1009.9 |
| 20260505090632 | 69 | 91 | 2.0 | 3.0 | 0.00 | 0.00 | 0.00 | 92 | 1009.9 |
| 20260505090131 | 69 | 30 | 0.0 | 1.0 | 0.00 | 0.00 | 0.00 | 91 | 1009.8 |
| 20260505085628 | 69 | 89 | 0.0 | 2.0 | 0.00 | 0.00 | 0.00 | 91 | 1009.8 |
| 20260505085126 | 69 | 86 | 0.0 | 2.0 | 0.00 | 0.00 | 0.00 | 91 | 1009.9 |
| 20260505084623 | 69 | 127 | 1.0 | 2.0 | 0.00 | 0.00 | 0.00 | 91 | 1010.2 |
| 20260505084122 | 69 | 64 | 0.0 | 1.0 | 0.00 | 0.00 | 0.00 | 91 | 1010.4 |
| 20260505083619 | 69 | 86 | 1.0 | 1.0 | 0.00 | 0.00 | 0.00 | 91 | 1010.3 |
| 20260505083115 | 69 | 61 | 0.0 | 1.0 | 0.00 | 0.00 | 0.00 | 91 | 1010.3 |
| 20260505082611 | 69 | 72 | 1.0 | 1.0 | 0.00 | 0.00 | 0.00 | 91 | 1010.4 |
| 20260505082108 | 69 | 99 | 2.0 | 3.0 | 0.00 | 0.00 | 0.00 | 91 | 1010.6 |
| 20260505081604 | 69 | 85 | 0.0 | 4.0 | 0.00 | 0.00 | 0.00 | 90 | 1010.6 |
| 20260505081102 | 69 | 90 | 2.0 | 3.0 | 0.00 | 0.00 | 0.00 | 90 | 1010.7 |
| 20260505080557 | 69 | 77 | 2.0 | 2.0 | 0.00 | 0.00 | 0.00 | 90 | 1010.7 |
| 20260505080054 | 69 | 79 | 1.0 | 2.0 | 0.00 | 0.00 | 0.00 | 90 | 1010.8 |
| 20260505075550 | 69 | 105 | 1.0 | 4.0 | 0.00 | 0.00 | 0.00 | 90 | 1010.9 |
| 20260505075047 | 69 | 102 | 1.0 | 1.0 | 0.00 | 0.00 | 0.00 | 90 | 1011.0 |
| 20260505074544 | 69 | 157 | 2.0 | 2.0 | 0.00 | 0.00 | 0.00 | 90 | 1010.7 |
| 20260505074042 | 69 | 78 | 0.0 | 1.0 | 0.00 | 0.00 | 0.00 | 89 | 1010.7 |
| 20260505073539 | 69 | 120 | 1.0 | 2.0 | 0.00 | 0.00 | 0.00 | 89 | 1010.8 |
| 20260505073038 | 69 | 85 | 1.0 | 2.0 | 0.00 | 0.00 | 0.00 | 89 | 1010.9 |
| 20260505072533 | 69 | 70 | 1.0 | 4.0 | 0.00 | 0.00 | 0.00 | 89 | 1010.9 |
| 20260505072029 | 69 | 66 | 0.0 | 2.0 | 0.00 | 0.00 | 0.00 | 89 | 1011.0 |
| 20260505071524 | 69 | 69 | 1.0 | 1.0 | 0.00 | 0.00 | 0.00 | 89 | 1010.8 |
| 20260505071023 | 69 | 60 | 0.0 | 1.0 | 0.00 | 0.00 | 0.00 | 89 | 1011.0 |
| 20260505070520 | 69 | 88 | 3.0 | 3.0 | 0.00 | 0.00 | 0.00 | 89 | 1011.2 |
| 20260505070016 | 69 | 97 | 1.0 | 2.0 | 0.00 | 0.00 | 0.00 | 89 | 1011.4 |
| 20260505065512 | 69 | 79 | 0.0 | 1.0 | 0.00 | 0.00 | 0.00 | 89 | 1011.3 |
| 20260505065008 | 69 | 86 | 1.0 | 4.0 | 0.00 | 0.00 | 0.00 | 89 | 1011.6 |
| 20260505064505 | 69 | 63 | 1.0 | 1.0 | 0.00 | 0.00 | 0.00 | 88 | 1011.6 |
| 20260505064004 | 69 | 190 | 2.0 | 4.0 | 0.00 | 0.00 | 0.00 | 88 | 1011.5 |
| 20260505063500 | 69 | 103 | 3.0 | 4.0 | 0.00 | 0.00 | 0.00 | 88 | 1011.5 |
| 20260505062956 | 69 | 71 | 1.0 | 1.0 | 0.00 | 0.00 | 0.00 | 88 | 1011.4 |
| 20260505062453 | 69 | 102 | 2.0 | 3.0 | 0.00 | 0.00 | 0.00 | 88 | 1011.7 |
| 20260505061950 | 70 | 113 | 0.0 | 1.0 | 0.00 | 0.00 | 0.00 | 87 | 1011.7 |
| 20260505061448 | 70 | 71 | 0.0 | 3.0 | 0.00 | 0.00 | 0.00 | 87 | 1011.6 |
| 20260505060946 | 70 | 79 | 1.0 | 3.0 | 0.00 | 0.00 | 0.00 | 87 | 1011.6 |
| 20260505060443 | 70 | 53 | 1.0 | 4.0 | 0.00 | 0.00 | 0.00 | 87 | 1011.6 |
| 20260505055939 | 70 | 131 | 1.0 | 4.0 | 0.00 | 0.00 | 0.00 | 87 | 1011.5 |
| 20260505055435 | 70 | 81 | 0.0 | 1.0 | 0.00 | 0.00 | 0.00 | 87 | 1011.3 |
| 20260505054932 | 70 | 81 | 2.0 | 2.0 | 0.00 | 0.00 | 0.00 | 86 | 1011.5 |